Date String (YYYY-MM-DD hh:mm:ss) UTC,Instrument flags,Ambient pressure (hPa),Sample flow (lpm),Bypass flow (lpm),Sample temperature (°C),Ambient temperature (°C),ASC tube jacket temperature (°C),LED temperature (°C),Box temperature (°C),Sample RH (%),Span deviation,Mass concentration (μg/m³),Mass concentration (μg/m³),Mass concentration (μg/m³)
DateTimeUTC,F1_M11,P_M11,Q1_M11,Q2_M11,T1_M11,T2_M11,T3_M11,T4_M11,T5_M11,U1_M11,ZSPAN_M11,X2_M11,X0_M11,X1_M11
2023-04-06 16:00:00,,0835.5,5.00,0.00,22.2,21.2,00.0,30.5,23.6,07.1,0000.0,0001.38,0006.11,0000.91
2023-04-06 16:01:00,,0835.5,5.00,0.00,22.2,20.9,00.0,30.5,23.5,07.1,0000.0,0001.36,0006.02,0000.89
2023-04-06 16:02:00,,0835.5,5.00,0.00,22.2,20.7,00.0,30.5,23.5,07.3,0000.0,0001.34,0005.91,0000.88
2023-04-06 16:03:00,,0835.5,5.01,0.00,22.1,20.6,00.0,30.5,23.4,07.0,0000.0,0001.37,0006.00,0000.88
2023-04-06 16:04:00,,0835.5,4.99,0.00,22.1,20.4,00.0,30.5,23.4,07.2,0000.0,0001.34,0005.73,0000.86
2023-04-06 16:05:00,,0835.5,4.99,0.00,22.1,20.3,00.0,30.5,23.3,07.3,0000.0,0001.37,0004.42,0000.86
2023-04-06 16:06:00,,0835.5,4.99,0.00,22.0,20.2,00.0,30.5,23.3,07.4,0000.0,0001.39,0003.42,0000.86
2023-04-06 16:07:00,,0835.6,5.00,0.00,22.0,20.0,00.0,30.5,23.3,07.0,0000.0,0001.32,0003.25,0000.86
2023-04-06 16:08:00,,0835.5,5.01,0.00,22.0,20.0,00.0,30.4,23.2,07.3,0000.0,0001.33,0002.88,0000.86
2023-04-06 16:09:00,,0835.6,5.00,0.00,21.9,19.9,00.0,30.4,23.1,07.1,0000.0,0001.32,0002.46,0000.86
2023-04-06 16:10:00,,0835.5,4.98,0.00,21.9,19.9,00.0,30.4,23.2,07.1,0000.0,0001.27,0002.27,0000.86
2023-04-06 16:11:00,,0835.5,5.02,0.00,21.9,20.9,00.0,30.3,23.6,07.1,0000.0,0001.27,0002.35,0000.86
2023-04-06 16:12:00,,0835.5,5.00,0.00,22.1,22.4,00.0,30.3,24.1,07.1,0000.0,0001.27,0002.43,0000.86
2023-04-06 16:13:00,,0835.5,4.99,0.00,22.2,22.9,00.0,30.4,24.1,07.1,0000.0,0001.28,0002.54,0000.87
2023-04-06 16:14:00,,0835.5,4.98,0.00,22.3,22.5,00.0,30.4,23.9,06.8,0000.0,0001.31,0002.64,0000.86
2023-04-06 16:15:00,,0835.5,5.01,0.00,22.2,22.1,00.0,30.5,23.8,07.0,0000.0,0001.31,0002.59,0000.86
2023-04-06 16:16:00,,0835.5,5.01,0.00,22.2,21.7,00.0,30.5,23.8,07.8,0000.0,0001.29,0002.61,0000.86
2023-04-06 16:17:00,,0835.6,5.00,0.00,22.2,21.5,00.0,30.5,23.7,07.6,0000.0,0001.22,0002.58,0000.86
2023-04-06 16:18:00,,0835.6,5.01,0.00,22.2,21.2,00.0,30.5,23.6,07.2,0000.0,0001.25,0002.95,0000.86
2023-04-06 16:19:00,,0835.5,4.99,0.00,22.2,21.0,00.0,30.5,23.6,07.2,0000.0,0001.22,0002.89,0000.86
2023-04-06 16:20:00,,0835.5,4.99,0.00,22.2,20.8,00.0,30.5,23.5,07.5,0000.0,0001.26,0002.93,0000.87
2023-04-06 16:21:00,,0835.5,5.02,0.00,22.1,20.6,00.0,30.5,23.5,07.8,0000.0,0001.28,0003.05,0000.87
2023-04-06 16:22:00,,0835.5,5.00,0.00,22.1,20.6,00.0,30.5,23.5,07.6,0000.0,0001.30,0003.49,0000.86
2023-04-06 16:23:00,,0835.5,5.00,0.00,22.1,20.5,00.0,30.5,23.5,07.7,0000.0,0001.36,0003.51,0000.88
2023-04-06 16:24:00,,0835.5,4.99,0.00,22.1,20.4,00.0,30.5,23.4,07.4,0000.0,0001.34,0003.45,0000.87
2023-04-06 16:25:00,,0835.5,5.00,0.00,22.1,20.3,00.0,30.5,23.4,07.5,0000.0,0001.29,0003.36,0000.88
2023-04-06 16:26:00,,0835.5,5.01,0.00,22.0,20.2,00.0,30.4,23.4,08.3,0000.0,0001.31,0003.45,0000.88
2023-04-06 16:27:00,,0835.5,5.00,0.00,22.0,20.2,00.0,30.4,23.3,07.5,0000.0,0001.32,0003.40,0000.88
2023-04-06 16:28:00,,0835.5,5.00,0.00,22.0,20.2,00.0,30.4,23.3,07.3,0000.0,0001.33,0003.39,0000.88
2023-04-06 16:29:00,,0835.5,5.00,0.00,22.0,20.2,00.0,30.4,23.3,07.3,0000.0,0001.32,0003.08,0000.88
2023-04-06 16:30:00,,0835.5,5.01,0.00,22.0,20.1,00.0,30.4,23.3,07.4,0000.0,0001.34,0003.23,0000.88
2023-04-06 16:31:00,,0835.5,4.99,0.00,21.9,20.1,00.0,30.4,23.3,08.3,0000.0,0001.35,0003.23,0000.88
2023-04-06 16:32:00,,0835.5,4.99,0.00,21.9,20.1,00.0,30.4,23.3,08.3,0000.0,0001.39,0003.19,0000.89
2023-04-06 16:33:00,,0835.5,5.01,0.00,21.9,20.1,00.0,30.3,23.3,07.6,0000.0,0001.40,0002.72,0000.90
2023-04-06 16:34:00,,0835.5,5.01,0.00,22.0,21.2,00.0,30.3,23.7,07.3,0000.0,0001.35,0002.68,0000.89
2023-04-06 16:35:00,,0835.6,5.00,0.00,22.1,22.8,00.0,30.3,24.2,07.2,0000.0,0001.35,0002.64,0000.89
2023-04-06 16:36:00,,0835.5,4.99,0.00,22.3,23.2,00.0,30.4,24.3,07.6,0000.0,0001.34,0002.52,0000.89
2023-04-06 16:37:00,,0835.5,4.99,0.00,22.3,23.0,00.0,30.4,24.1,07.6,0000.0,0001.35,0002.56,0000.89
2023-04-06 16:38:00,,0835.5,5.00,0.00,22.3,22.5,00.0,30.5,24.0,07.4,0000.0,0001.39,0002.72,0000.89
2023-04-06 16:39:00,,0835.5,5.00,0.00,22.3,22.2,00.0,30.5,23.9,07.5,0000.0,0001.43,0002.90,0000.89
2023-04-06 16:40:00,,0835.5,5.00,0.00,22.3,21.8,00.0,30.5,23.8,07.7,0000.0,0001.46,0003.66,0000.90
2023-04-06 16:41:00,,0835.5,5.00,0.00,22.3,21.5,00.0,30.5,23.7,08.0,0000.0,0001.46,0004.05,0000.91
2023-04-06 16:42:00,,0835.4,5.00,0.00,22.3,21.2,00.0,30.5,23.7,08.1,0000.0,0001.46,0004.16,0000.90
2023-04-06 16:43:00,,0835.3,5.00,0.00,22.2,20.9,00.0,30.5,23.6,08.0,0000.0,0001.45,0004.24,0000.91
2023-04-06 16:44:00,,0835.4,5.02,0.00,22.2,20.8,00.0,30.5,23.5,08.2,0000.0,0001.44,0004.56,0000.92
2023-04-06 16:45:00,,0835.3,4.99,0.00,22.2,20.6,00.0,30.5,23.5,08.4,0000.0,0001.45,0004.55,0000.92
2023-04-06 16:46:00,,0835.4,5.00,0.00,22.2,20.4,00.0,30.5,23.6,08.2,0000.0,0001.47,0004.70,0000.92
2023-04-06 16:47:00,,0835.5,5.00,0.00,22.1,20.4,00.0,30.5,23.5,08.4,0000.0,0001.49,0004.75,0000.93
2023-04-06 16:48:00,,0835.3,5.01,0.00,22.1,20.3,00.0,30.5,23.4,07.8,0000.0,0001.48,0004.94,0000.95
2023-04-06 16:49:00,,0835.2,5.00,0.00,22.1,20.2,00.0,30.5,23.3,07.6,0000.0,0001.46,0005.40,0000.98
2023-04-06 16:50:00,,0835.3,4.99,0.00,22.0,20.1,00.0,30.5,23.3,07.6,0000.0,0001.44,0005.32,0000.99
2023-04-06 16:51:00,,0835.3,5.00,0.00,22.0,20.1,00.0,30.4,23.3,07.3,0000.0,0001.44,0006.32,0000.99
2023-04-06 16:52:00,,0835.3,5.01,0.00,22.0,20.1,00.0,30.4,23.3,07.4,0000.0,0001.44,0005.73,0001.00
2023-04-06 16:53:00,,0835.3,5.01,0.00,22.0,20.1,00.0,30.4,23.4,07.8,0000.0,0001.45,0005.74,0001.00
2023-04-06 16:54:00,,0835.4,5.01,0.00,22.0,20.1,00.0,30.4,23.4,07.9,0000.0,0001.42,0007.02,0001.00
2023-04-06 16:55:00,,0835.4,5.00,0.00,22.0,20.2,00.0,30.4,23.3,08.3,0000.0,0001.44,0006.91,0000.99
2023-04-06 16:56:00,,0835.2,4.99,0.00,21.9,20.2,00.0,30.4,23.3,07.8,0000.0,0001.48,0007.08,0001.00
2023-04-06 16:57:00,,0835.3,5.00,0.00,21.9,20.1,00.0,30.4,23.3,07.5,0000.0,0001.45,0006.91,0001.01
2023-04-06 16:58:00,,0835.2,5.01,0.00,21.9,20.2,00.0,30.4,23.3,07.4,0000.0,0001.46,0007.10,0001.02
2023-04-06 16:59:00,,0835.2,5.00,0.00,21.9,20.2,00.0,30.3,23.3,07.6,0000.0,0001.49,0006.87,0001.03
